Regional Weather Roundup
Issued by NWS

Home | Current Version | Previous Version | Graphics & Text | Print | Product List | Glossary On
Versions: 1 2 3 4 5 6 7 8 9 10 11 12 13 14 15 16 17 18 19 20 21 22 23 24 25 26 27 28 29 30 31 32 33 34 35 36 37 38 39 40 41 42 43 44 45 46 47 48 49 50
000
ASUS45 KCYS 241010
RWRWY

WYOMING REGIONAL WEATHER ROUNDUP
NATIONAL WEATHER SERVICE CHEYENNE WY
400 AM MDT FRI APR 24 2015

NOTE:  "FAIR" INDICATES FEW OR NO CLOUDS BELOW 12,000 FEET
WITH NO SIGNIFICANT WEATHER AND/OR OBSTRUCTIONS TO VISIBILITY.

WYZ001-241100-
YELLOWSTONE NATIONAL PARK

CITY           SKY/WX    TMP DP  RH WIND       PRES   REMARKS
LK YELLOWSTONE   N/A     23  19  85 CALM      29.80S
W YELLOWSTONE  NOT AVBL

$$
WYZ002>013-054>058-071-098>099-241100-
NORTHERN WYOMING

CITY           SKY/WX    TMP DP  RH WIND       PRES   REMARKS
JACKSON        FAIR      28  27  93 CALM      29.77S
CODY           FAIR      45  28  53 CALM      29.66S
GREYBULL       FAIR      41  38  89 SE6       29.66S
WORLAND        FAIR      41  39  93 CALM      29.66S
SHERIDAN       FAIR      34  33  96 W3        29.63S
BUFFALO        FAIR      44  35  70 W6        29.65F
GILLETTE       MOCLDY    47  41  80 W10       29.64S
HULETT         CLOUDY    45  36  70 CALM      29.65S
NEWCASTLE      FAIR      43  36  75 NE5       29.65S

$$
WYZ014>020-022>026-101>103-241100-
CENTRAL WYOMING

CITY           SKY/WX    TMP DP  RH WIND       PRES   REMARKS
BIG PINEY      CLOUDY    30  27  88 E5        29.80S WCI  25
PINEDALE       FAIR      27  27 100 N5        29.80S WCI  21
DUBOIS         FAIR      32  27  80 NW12      29.76S WCI  23
LANDER         FAIR      42  30  62 CALM      29.70S
RIVERTON       FAIR      43  32  65 W12       29.71S
CASPER         FAIR      45  35  68 SW17      29.70S
DOUGLAS        FAIR      40  36  86 S8        29.69S WCI  34

$$
WYZ021-027>030-104>119-241100-
SOUTHERN WYOMING

CITY           SKY/WX    TMP DP  RH WIND       PRES   REMARKS
EVANSTON       FAIR      37  31  78 SE6       29.79F WCI  32
KEMMERER       FAIR      34  32  93 CALM      29.80S
FORT BRIDGER   MOSUNNY   36  32  87 S10       29.82F WCI  28
ROCK SPRINGS   MOCLDY    37  31  78 S5        29.80F WCI  33
DIXON          CLOUDY    37  31  79 E10       29.84F WCI  30
RAWLINS        FAIR      41  31  67 SW10      29.80S
SARATOGA       CLOUDY    34  32  93 CALM      29.82S
LARAMIE        FAIR      36  28  73 W13       29.79F WCI  27
CHEYENNE       FAIR      41  29  62 W8        29.76F
TORRINGTON     FAIR      45  34  65 W5        29.68S
PINE BLUFFS    FAIR      37  36  93 W5        29.74F WCI  34

$$


USA.gov is the U.S. government's official web portal to all federal, state and local government web resources and services.